Voltar ao catálogo

STARLINK-37552

AtivoComunicaçõesVLEO
NORAD 69513·PAYLOAD·🇺🇸 United States

Lançado Jun 12, 2026 de Cape Canaveral Space Force Station

Loading…

Próximas Passagens (próximas 24 horas)

TLE

AtualizadoSource: CelesTrak SupGP

Época: Sep 14, 2026, 23:32 UTC

1 69513C 26133F   26257.98104167  .00031625  00000+0  93422-3 0  2573
2 69513  53.1564 255.6798 0001439  93.4288 303.1312 15.34379504    18

Acompanhe STARLINK-37552 em tempo real com AllMySat

Download on the App Store